Tyler, TX

12:46 PM CDT on April 29, 2017 (GMT -0500)
Tyler Pounds

Weather History for KTYR - July, 2012

Change the Weather History Date:

Friday, July 27, 2012

  Actual Average Record
Temperature  
Mean Temperature 86 °F 84 °F  
Max Temperature 93 °F 94 °F 105 °F (2011)
Min Temperature 78 °F 74 °F 65 °F (2004)
Degree Days  
Heating Degree Days 0 0  
Month to date heating degree days 0 0  
Since 1 June heating degree days 0 0  
Since 1 July heating degree days 0 0  
Cooling Degree Days 21 19  
Month to date cooling degree days 518 482  
Year to date cooling degree days 1691 1284  
Since 1 June cooling degree days 1032 915  
Growing Degree Days 34 (Base 50)    
Moisture  
Dew Point 72 °F    
Average Humidity 64    
Maximum Humidity 79    
Minimum Humidity 49    
Precipitation  
Precipitation 0.00 in 0.05 in 7.88 in (1979)
Month to date precipitation 1.82 2.39  
Year to date precipitation 21.17 26.15  
Snow  
Snow 0.00 in - - ()
Month to date snowfall 0.0  
Since 1 June snowfall 0.0  
Since 1 July snowfall 0.0  
Snow Depth 0.00 in    
Sea Level Pressure  
Sea Level Pressure 30.00 in    
Wind  
Wind Speed 7 mph (SSW)    
Max Wind Speed 14 mph    
Max Gust Speed 20 mph    
Visibility 8 miles    
Events      
T = Trace of Precipitation, MM = Missing Value Source: NWS Daily Summary

Daily Weather History Graph

Daily Weather History Graph

Search for Another Location

Airport or City:

Trip Planner

Search our weather history database for the weather conditions in past years. The results will help you decide how hot, cold, wet, or windy it might be!

Date:

Astronomy

Jul. 27, 2012 Rise Set
Actual Time 6:33 AM CDT 8:22 PM CDT
Civil Twilight 6:06 AM CDT 8:49 PM CDT
Nautical Twilight 5:33 AM CDT 9:22 PM CDT
Astronomical Twilight 4:58 AM CDT 9:56 PM CDT
Moon 3:19 PM CDT (7/27) 1:05 AM CDT (7/27)
Length of Visible Light 14h 43m
Length of Day
13h 49m
Waxing Gibbous, 65% of the Moon is Illuminated
Jul 27
Waxing Gibbous
Aug 1
Full
Aug 9
Last Quarter
Aug 17
New
Aug 24
First Quarter

Hourly Weather History & Observations

Time (CDT) Temp. Heat Index Dew Point Humidity Pressure Visibility Wind Dir Wind Speed Gust Speed Precip Events Conditions
12:53 AM 82.9 °F 86.5 °F 69.1 °F 63% 29.94 in 10.0 mi South 8.1 mph - N/A   Clear
1:53 AM 82.0 °F 85.9 °F 70.0 °F 67% 29.95 in 10.0 mi South 10.4 mph - N/A   Clear
2:53 AM 82.0 °F 86.3 °F 71.1 °F 69% 29.94 in 10.0 mi SSW 10.4 mph - N/A   Clear
3:53 AM 81.0 °F 84.9 °F 71.1 °F 72% 29.95 in 10.0 mi SSW 9.2 mph - N/A   Clear
4:53 AM 80.1 °F 83.2 °F 70.0 °F 71% 29.96 in 9.0 mi SSW 9.2 mph - N/A   Clear
5:53 AM 79.0 °F - 71.1 °F 77% 29.98 in 9.0 mi SW 10.4 mph - N/A   Clear
6:53 AM 78.1 °F - 72.0 °F 81% 30.01 in 7.0 mi SW 4.6 mph - N/A   Clear
7:53 AM 79.0 °F - 72.0 °F 79% 30.04 in 7.0 mi WSW 3.5 mph - N/A   Clear
8:53 AM 80.1 °F 84.2 °F 73.0 °F 79% 30.07 in 7.0 mi Calm Calm - N/A   Mostly Cloudy
9:53 AM 81.0 °F 85.8 °F 73.0 °F 77% 30.06 in 7.0 mi SSE 6.9 mph - N/A   Overcast
10:53 AM 82.9 °F 88.8 °F 73.0 °F 72% 30.06 in 7.0 mi SW 9.2 mph - N/A   Overcast
11:53 AM 84.9 °F 90.7 °F 72.0 °F 65% 30.05 in 6.0 mi WSW 8.1 mph - N/A   Haze
12:53 PM 88.0 °F 93.8 °F 71.1 °F 57% 30.05 in 7.0 mi SW 8.1 mph - N/A   Scattered Clouds
1:53 PM 89.1 °F 96.0 °F 72.0 °F 57% 30.03 in 7.0 mi SSW 11.5 mph - N/A   Scattered Clouds
2:53 PM 90.0 °F 95.4 °F 70.0 °F 52% 30.02 in 9.0 mi SW 6.9 mph - N/A   Partly Cloudy
3:53 PM 91.9 °F 97.4 °F 70.0 °F 48% 30.01 in 9.0 mi South 9.2 mph - N/A   Clear
4:53 PM 91.9 °F 98.4 °F 71.1 °F 50% 29.99 in 9.0 mi SSW 8.1 mph - N/A   Clear
5:53 PM 91.9 °F 97.4 °F 70.0 °F 48% 29.98 in 9.0 mi Variable 5.8 mph - N/A   Clear
6:53 PM 91.0 °F 96.6 °F 70.0 °F 50% 29.98 in 6.0 mi SSE 5.8 mph - N/A   Haze
7:53 PM 89.1 °F 96.0 °F 72.0 °F 57% 29.99 in 8.0 mi SSE 4.6 mph - N/A   Clear
8:53 PM 84.9 °F 91.4 °F 73.0 °F 67% 29.99 in 9.0 mi SSE 4.6 mph - N/A   Clear
9:53 PM 82.9 °F 89.4 °F 73.9 °F 74% 30.01 in 9.0 mi SSE 5.8 mph - N/A   Clear
10:53 PM 82.0 °F 87.4 °F 73.0 °F 74% 30.03 in 9.0 mi South 4.6 mph - N/A   Clear
11:53 PM 81.0 °F 85.8 °F 73.0 °F 77% 30.03 in 9.0 mi SSE 5.8 mph - N/A   Clear